#Datum;Uhrzeit;WR;Pac;DaySum;Status;WR;Pac;DaySum;Status;Pdc1;Udc;Temp;WR;Pac;DaySum;Status;Pdc1;Udc;Temp;WR;Pac;DaySum;Status;Pdc1;Udc;Temp;WR;Pac;DaySum;Status;Pdc1;Pdc2;Udc1;Udc2;Temp;WR;Pac;DaySum;Status;Pdc1;Pdc2;Udc1;Udc2;Temp;WR;Pac;DaySum;Status;Pdc1;Udc;Temp;WR;Pac;DaySum;Status;Pdc1;Udc;Temp;WR;Pac;DaySum;Status;Pdc1;Udc;Temp
03.12.18;23:55:00;1;333;12137;0;2;0;2437;0;0;0;0;3;0;1471;0;0;0;0;4;0;2058;0;0;0;0;5;0;5382;0;0;0;0;0;0;6;0;3556;0;0;0;0;0;0;7;0;2687;0;0;0;0;8;0;2828;0;0;0;0;9;0;1434;0;0;0;0
03.12.18;23:50:00;1;333;12109;0;2;0;2437;0;0;0;0;3;0;1471;0;0;0;0;4;0;2058;0;0;0;0;5;0;5382;0;0;0;0;0;0;6;0;3556;0;0;0;0;0;0;7;0;2687;0;0;0;0;8;0;2828;0;0;0;0;9;0;1434;0;0;0;0
03.12.18;23:45:00;1;334;12081;0;2;0;2437;0;0;0;0;3;0;1471;0;0;0;0;4;0;2058;0;0;0;0;5;0;5382;0;0;0;0;0;0;6;0;3556;0;0;0;0;0;0;7;0;2687;0;0;0;0;8;0;2828;0;0;0;0;9;0;1434;0;0;0;0
03.12.18;23:40:00;1;334;12053;0;2;0;2437;0;0;0;0;3;0;1471;0;0;0;0;4;0;2058;0;0;0;0;5;0;5382;0;0;0;0;0;0;6;0;3556;0;0;0;0;0;0;7;0;2687;0;0;0;0;8;0;2828;0;0;0;0;9;0;1434;0;0;0;0
03.12.18;23:35:00;1;314;12025;0;2;0;2437;0;0;0;0;3;0;1471;0;0;0;0;4;0;2058;0;0;0;0;5;0;5382;0;0;0;0;0;0;6;0;3556;0;0;0;0;0;0;7;0;2687;0;0;0;0;8;0;2828;0;0;0;0;9;0;1434;0;0;0;0
03.12.18;23:30:00;1;268;12001;0;2;0;2437;0;0;0;0;3;0;1471;0;0;0;0;4;0;2058;0;0;0;0;5;0;5382;0;0;0;0;0;0;6;0;3556;0;0;0;0;0;0;7;0;2687;0;0;0;0;8;0;2828;0;0;0;0;9;0;1434;0;0;0;0
03.12.18;23:25:00;1;269;11978;0;2;0;2437;0;0;0;0;3;0;1471;0;0;0;0;4;0;2058;0;0;0;0;5;0;5382;0;0;0;0;0;0;6;0;3556;0;0;0;0;0;0;7;0;2687;0;0;0;0;8;0;2828;0;0;0;0;9;0;1434;0;0;0;0
03.12.18;23:20:00;1;284;11956;0;2;0;2437;0;0;0;0;3;0;1471;0;0;0;0;4;0;2058;0;0;0;0;5;0;5382;0;0;0;0;0;0;6;0;3556;0;0;0;0;0;0;7;0;2687;0;0;0;0;8;0;2828;0;0;0;0;9;0;1434;0;0;0;0
03.12.18;23:15:00;1;310;11932;0;2;0;2437;0;0;0;0;3;0;1471;0;0;0;0;4;0;2058;0;0;0;0;5;0;5382;0;0;0;0;0;0;6;0;3556;0;0;0;0;0;0;7;0;2687;0;0;0;0;8;0;2828;0;0;0;0;9;0;1434;0;0;0;0
03.12.18;23:10:00;1;311;11906;0;2;0;2437;0;0;0;0;3;0;1471;0;0;0;0;4;0;2058;0;0;0;0;5;0;5382;0;0;0;0;0;0;6;0;3556;0;0;0;0;0;0;7;0;2687;0;0;0;0;8;0;2828;0;0;0;0;9;0;1434;0;0;0;0
03.12.18;23:05:00;1;320;11880;0;2;0;2437;0;0;0;0;3;0;1471;0;0;0;0;4;0;2058;0;0;0;0;5;0;5382;0;0;0;0;0;0;6;0;3556;0;0;0;0;0;0;7;0;2687;0;0;0;0;8;0;2828;0;0;0;0;9;0;1434;0;0;0;0
03.12.18;23:00:00;1;287;11853;0;2;0;2437;0;0;0;0;3;0;1471;0;0;0;0;4;0;2058;0;0;0;0;5;0;5382;0;0;0;0;0;0;6;0;3556;0;0;0;0;0;0;7;0;2687;0;0;0;0;8;0;2828;0;0;0;0;9;0;1434;0;0;0;0
03.12.18;22:55:00;1;309;11828;0;2;0;2437;0;0;0;0;3;0;1471;0;0;0;0;4;0;2058;0;0;0;0;5;0;5382;2;0;0;0;0;0;6;0;3556;2;0;0;0;0;0;7;0;2687;0;0;0;0;8;0;2828;0;0;0;0;9;0;1434;0;0;0;0
03.12.18;22:50:00;1;291;11803;0;2;0;2437;0;0;0;0;3;0;1471;0;0;0;0;4;0;2058;0;0;0;0;5;0;5382;2;0;0;0;0;0;6;0;3556;2;0;0;0;0;0;7;0;2687;0;0;0;0;8;0;2828;0;0;0;0;9;0;1434;0;0;0;0
03.12.18;22:45:00;1;284;11779;0;2;0;2437;0;0;0;0;3;0;1471;0;0;0;0;4;0;2058;0;0;0;0;5;0;5382;2;0;0;0;0;0;6;0;3556;2;0;0;0;0;0;7;0;2687;0;0;0;0;8;0;2828;0;0;0;0;9;0;1434;0;0;0;0
03.12.18;22:40:00;1;399;11755;0;2;0;2437;0;0;0;0;3;0;1471;0;0;0;0;4;0;2058;0;0;0;0;5;0;5382;2;0;0;0;0;0;6;0;3556;2;0;0;0;0;0;7;0;2687;0;0;0;0;8;0;2828;0;0;0;0;9;0;1434;0;0;0;0
03.12.18;22:35:00;1;437;11722;0;2;0;2437;0;0;0;0;3;0;1471;0;0;0;0;4;0;2058;0;0;0;0;5;0;5382;2;0;0;0;0;0;6;0;3556;2;0;0;0;0;0;7;0;2687;0;0;0;0;8;0;2828;0;0;0;0;9;0;1434;0;0;0;0
03.12.18;22:30:00;1;428;11686;0;2;0;2437;0;0;0;0;3;0;1471;0;0;0;0;4;0;2058;0;0;0;0;5;0;5382;2;0;0;0;0;0;6;0;3556;2;0;0;0;0;0;7;0;2687;0;0;0;0;8;0;2828;0;0;0;0;9;0;1434;0;0;0;0
03.12.18;22:25:00;1;431;11650;0;2;0;2437;0;0;0;0;3;0;1471;0;0;0;0;4;0;2058;0;0;0;0;5;0;5382;2;0;0;0;0;0;6;0;3556;2;0;0;0;0;0;7;0;2687;0;0;0;0;8;0;2828;0;0;0;0;9;0;1434;0;0;0;0
03.12.18;22:20:00;1;473;11614;0;2;0;2437;0;0;0;0;3;0;1471;0;0;0;0;4;0;2058;0;0;0;0;5;0;5382;2;0;0;0;0;0;6;0;3556;2;0;0;0;0;0;7;0;2687;0;0;0;0;8;0;2828;0;0;0;0;9;0;1434;0;0;0;0
03.12.18;22:15:00;1;478;11574;0;2;0;2437;0;0;0;0;3;0;1471;0;0;0;0;4;0;2058;0;0;0;0;5;0;5382;2;0;0;0;0;0;6;0;3556;2;0;0;0;0;0;7;0;2687;0;0;0;0;8;0;2828;0;0;0;0;9;0;1434;0;0;0;0
03.12.18;22:10:00;1;488;11534;0;2;0;2437;0;0;0;0;3;0;1471;0;0;0;0;4;0;2058;0;0;0;0;5;0;5382;2;0;0;0;0;0;6;0;3556;2;0;0;0;0;0;7;0;2687;0;0;0;0;8;0;2828;0;0;0;0;9;0;1434;0;0;0;0
03.12.18;22:05:00;1;445;11494;0;2;0;2437;0;0;0;0;3;0;1471;0;0;0;0;4;0;2058;0;0;0;0;5;0;5382;2;0;0;0;0;0;6;0;3556;2;0;0;0;0;0;7;0;2687;0;0;0;0;8;0;2828;0;0;0;0;9;0;1434;0;0;0;0
03.12.18;22:00:00;1;500;11456;0;2;0;2437;0;0;0;0;3;0;1471;0;0;0;0;4;0;2058;0;0;0;0;5;0;5382;2;0;0;0;0;0;6;0;3556;2;0;0;0;0;0;7;0;2687;0;0;0;0;8;0;2828;0;0;0;0;9;0;1434;0;0;0;0
03.12.18;21:55:00;1;499;11415;0;2;0;2437;0;0;0;0;3;0;1471;0;0;0;0;4;0;2058;0;0;0;0;5;0;5382;2;0;0;0;0;0;6;0;3556;2;0;0;0;0;0;7;0;2687;0;0;0;0;8;0;2828;0;0;0;0;9;0;1434;0;0;0;0
03.12.18;21:50:00;1;501;11373;0;2;0;2437;0;0;0;0;3;0;1471;0;0;0;0;4;0;2058;0;0;0;0;5;0;5382;2;0;0;0;0;0;6;0;3556;2;0;0;0;0;0;7;0;2687;0;0;0;0;8;0;2828;0;0;0;0;9;0;1434;0;0;0;0
03.12.18;21:45:00;1;500;11331;0;2;0;2437;0;0;0;0;3;0;1471;0;0;0;0;4;0;2058;0;0;0;0;5;0;5382;2;0;0;0;0;0;6;0;3556;2;0;0;0;0;0;7;0;2687;0;0;0;0;8;0;2828;0;0;0;0;9;0;1434;0;0;0;0
03.12.18;21:40:00;1;499;11289;0;2;0;2437;0;0;0;0;3;0;1471;0;0;0;0;4;0;2058;0;0;0;0;5;0;5382;2;0;0;0;0;0;6;0;3556;2;0;0;0;0;0;7;0;2687;0;0;0;0;8;0;2828;0;0;0;0;9;0;1434;0;0;0;0
03.12.18;21:35:00;1;501;11248;0;2;0;2437;0;0;0;0;3;0;1471;0;0;0;0;4;0;2058;0;0;0;0;5;0;5382;2;0;0;0;0;0;6;0;3556;2;0;0;0;0;0;7;0;2687;0;0;0;0;8;0;2828;0;0;0;0;9;0;1434;0;0;0;0
03.12.18;21:30:00;1;500;11206;0;2;0;2437;0;0;0;0;3;0;1471;0;0;0;0;4;0;2058;0;0;0;0;5;0;5382;2;0;0;0;0;0;6;0;3556;2;0;0;0;0;0;7;0;2687;0;0;0;0;8;0;2828;0;0;0;0;9;0;1434;0;0;0;0
03.12.18;21:25:00;1;528;11164;0;2;0;2437;0;0;0;0;3;0;1471;0;0;0;0;4;0;2058;0;0;0;0;5;0;5382;2;0;0;0;0;0;6;0;3556;2;0;0;0;0;0;7;0;2687;0;0;0;0;8;0;2828;0;0;0;0;9;0;1434;0;0;0;0
03.12.18;21:20:00;1;475;11119;0;2;0;2437;0;0;0;0;3;0;1471;0;0;0;0;4;0;2058;0;0;0;0;5;0;5382;2;0;0;0;0;0;6;0;3556;2;0;0;0;0;0;7;0;2687;0;0;0;0;8;0;2828;0;0;0;0;9;0;1434;0;0;0;0
03.12.18;21:15:00;1;477;11079;0;2;0;2437;0;0;0;0;3;0;1471;0;0;0;0;4;0;2058;0;0;0;0;5;0;5382;2;0;0;0;0;0;6;0;3556;2;0;0;0;0;0;7;0;2687;0;0;0;0;8;0;2828;0;0;0;0;9;0;1434;0;0;0;0
03.12.18;21:10:00;1;455;11040;0;2;0;2437;0;0;0;0;3;0;1471;0;0;0;0;4;0;2058;0;0;0;0;5;0;5382;2;0;0;0;0;0;6;0;3556;2;0;0;0;0;0;7;0;2687;0;0;0;0;8;0;2828;0;0;0;0;9;0;1434;0;0;0;0
03.12.18;21:05:00;1;437;11001;0;2;0;2437;0;0;0;0;3;0;1471;0;0;0;0;4;0;2058;0;0;0;0;5;0;5382;2;0;0;0;0;0;6;0;3556;2;0;0;0;0;0;7;0;2687;0;0;0;0;8;0;2828;0;0;0;0;9;0;1434;0;0;0;0
03.12.18;21:00:00;1;436;10965;0;2;0;2437;0;0;0;0;3;0;1471;0;0;0;0;4;0;2058;0;0;0;0;5;0;5382;2;0;0;0;0;0;6;0;3556;2;0;0;0;0;0;7;0;2687;0;0;0;0;8;0;2828;0;0;0;0;9;0;1434;0;0;0;0
03.12.18;20:55:00;1;436;10928;0;2;0;2437;0;0;0;0;3;0;1471;0;0;0;0;4;0;2058;0;0;0;0;5;0;5382;2;0;0;0;0;0;6;0;3556;2;0;0;0;0;0;7;0;2687;0;0;0;0;8;0;2828;0;0;0;0;9;0;1434;0;0;0;0
03.12.18;20:50:00;1;437;10892;0;2;0;2437;0;0;0;0;3;0;1471;0;0;0;0;4;0;2058;0;0;0;0;5;0;5382;2;0;0;0;0;0;6;0;3556;2;0;0;0;0;0;7;0;2687;0;0;0;0;8;0;2828;0;0;0;0;9;0;1434;0;0;0;0
03.12.18;20:45:00;1;419;10855;0;2;0;2437;0;0;0;0;3;0;1471;0;0;0;0;4;0;2058;0;0;0;0;5;0;5382;2;0;0;0;0;0;6;0;3556;2;0;0;0;0;0;7;0;2687;0;0;0;0;8;0;2828;0;0;0;0;9;0;1434;0;0;0;0
03.12.18;20:40:00;1;435;10819;0;2;0;2437;0;0;0;0;3;0;1471;0;0;0;0;4;0;2058;0;0;0;0;5;0;5382;2;0;0;0;0;0;6;0;3556;2;0;0;0;0;0;7;0;2687;0;0;0;0;8;0;2828;0;0;0;0;9;0;1434;0;0;0;0
03.12.18;20:35:00;1;455;10783;0;2;0;2437;0;0;0;0;3;0;1471;0;0;0;0;4;0;2058;0;0;0;0;5;0;5382;2;0;0;0;0;0;6;0;3556;2;0;0;0;0;0;7;0;2687;0;0;0;0;8;0;2828;0;0;0;0;9;0;1434;0;0;0;0
03.12.18;20:30:00;1;485;10745;0;2;0;2437;0;0;0;0;3;0;1471;0;0;0;0;4;0;2058;0;0;0;0;5;0;5382;2;0;0;0;0;0;6;0;3556;2;0;0;0;0;0;7;0;2687;0;0;0;0;8;0;2828;0;0;0;0;9;0;1434;0;0;0;0
03.12.18;20:25:00;1;513;10704;0;2;0;2437;0;0;0;0;3;0;1471;0;0;0;0;4;0;2058;0;0;0;0;5;0;5382;2;0;0;0;0;0;6;0;3556;2;0;0;0;0;0;7;0;2687;0;0;0;0;8;0;2828;0;0;0;0;9;0;1434;0;0;0;0
03.12.18;20:20:00;1;514;10661;0;2;0;2437;0;0;0;0;3;0;1471;0;0;0;0;4;0;2058;0;0;0;0;5;0;5382;2;0;0;0;0;0;6;0;3556;2;0;0;0;0;0;7;0;2687;0;0;0;0;8;0;2828;0;0;0;0;9;0;1434;0;0;0;0
03.12.18;20:15:00;1;502;10618;0;2;0;2437;0;0;0;0;3;0;1471;0;0;0;0;4;0;2058;0;0;0;0;5;0;5382;2;0;0;0;0;0;6;0;3556;2;0;0;0;0;0;7;0;2687;0;0;0;0;8;0;2828;0;0;0;0;9;0;1434;0;0;0;0
03.12.18;20:10:00;1;371;10578;0;2;0;2437;0;0;0;0;3;0;1471;0;0;0;0;4;0;2058;0;0;0;0;5;0;5382;2;0;0;0;0;0;6;0;3556;2;0;0;0;0;0;7;0;2687;0;0;0;0;8;0;2828;0;0;0;0;9;0;1434;0;0;0;0
03.12.18;20:05:00;1;369;10547;0;2;0;2437;0;0;0;0;3;0;1471;0;0;0;0;4;0;2058;0;0;0;0;5;0;5382;2;0;0;0;0;0;6;0;3556;2;0;0;0;0;0;7;0;2687;0;0;0;0;8;0;2828;0;0;0;0;9;0;1434;0;0;0;0
03.12.18;20:00:00;1;397;10516;0;2;0;2437;0;0;0;0;3;0;1471;0;0;0;0;4;0;2058;0;0;0;0;5;0;5382;2;0;0;0;0;0;6;0;3556;2;0;0;0;0;0;7;0;2687;0;0;0;0;8;0;2828;0;0;0;0;9;0;1434;0;0;0;0
03.12.18;19:55:00;1;439;10482;0;2;0;2437;0;0;0;0;3;0;1471;0;0;0;0;4;0;2058;0;0;0;0;5;0;5382;2;0;0;0;0;0;6;0;3556;2;0;0;0;0;0;7;0;2687;0;0;0;0;8;0;2828;0;0;0;0;9;0;1434;0;0;0;0
03.12.18;19:50:00;1;439;10445;0;2;0;2437;0;0;0;0;3;0;1471;0;0;0;0;4;0;2058;0;0;0;0;5;0;5382;2;0;0;0;0;0;6;0;3556;2;0;0;0;0;0;7;0;2687;0;0;0;0;8;0;2828;0;0;0;0;9;0;1434;0;0;0;0
03.12.18;19:45:00;1;629;10408;0;2;0;2437;0;0;0;0;3;0;1471;0;0;0;0;4;0;2058;0;0;0;0;5;0;5382;2;0;0;0;0;0;6;0;3556;2;0;0;0;0;0;7;0;2687;0;0;0;0;8;0;2828;0;0;0;0;9;0;1434;0;0;0;0
03.12.18;19:40:00;1;935;10345;0;2;0;2437;0;0;0;0;3;0;1471;0;0;0;0;4;0;2058;0;0;0;0;5;0;5382;2;0;0;0;0;0;6;0;3556;2;0;0;0;0;0;7;0;2687;0;0;0;0;8;0;2828;0;0;0;0;9;0;1434;0;0;0;0
03.12.18;19:35:00;1;453;10266;0;2;0;2437;0;0;0;0;3;0;1471;0;0;0;0;4;0;2058;0;0;0;0;5;0;5382;2;0;0;0;0;0;6;0;3556;2;0;0;0;0;0;7;0;2687;0;0;0;0;8;0;2828;0;0;0;0;9;0;1434;0;0;0;0
03.12.18;19:30:00;1;489;10228;0;2;0;2437;0;0;0;0;3;0;1471;0;0;0;0;4;0;2058;0;0;0;0;5;0;5382;2;0;0;0;0;0;6;0;3556;2;0;0;0;0;0;7;0;2687;0;0;0;0;8;0;2828;0;0;0;0;9;0;1434;0;0;0;0
03.12.18;19:25:00;1;490;10187;0;2;0;2437;0;0;0;0;3;0;1471;0;0;0;0;4;0;2058;0;0;0;0;5;0;5382;2;0;0;0;0;0;6;0;3556;2;0;0;0;0;0;7;0;2687;0;0;0;0;8;0;2828;0;0;0;0;9;0;1434;0;0;0;0
03.12.18;19:20:00;1;496;10146;0;2;0;2437;0;0;0;0;3;0;1471;0;0;0;0;4;0;2058;0;0;0;0;5;0;5382;2;0;0;0;0;0;6;0;3556;2;0;0;0;0;0;7;0;2687;0;0;0;0;8;0;2828;0;0;0;0;9;0;1434;0;0;0;0
03.12.18;19:15:00;1;458;10105;0;2;0;2437;0;0;0;0;3;0;1471;0;0;0;0;4;0;2058;0;0;0;0;5;0;5382;2;0;0;0;0;0;6;0;3556;2;0;0;0;0;0;7;0;2687;0;0;0;0;8;0;2828;0;0;0;0;9;0;1434;0;0;0;0
03.12.18;19:10:00;1;407;10067;0;2;0;2437;0;0;0;0;3;0;1471;0;0;0;0;4;0;2058;0;0;0;0;5;0;5382;2;0;0;0;0;0;6;0;3556;2;0;0;0;0;0;7;0;2687;0;0;0;0;8;0;2828;0;0;0;0;9;0;1434;0;0;0;0
03.12.18;19:05:00;1;402;10033;0;2;0;2437;0;0;0;0;3;0;1471;0;0;0;0;4;0;2058;0;0;0;0;5;0;5382;2;0;0;0;0;0;6;0;3556;2;0;0;0;0;0;7;0;2687;0;0;0;0;8;0;2828;0;0;0;0;9;0;1434;0;0;0;0
03.12.18;19:00:00;1;402;9999;0;2;0;2437;0;0;0;0;3;0;1471;0;0;0;0;4;0;2058;0;0;0;0;5;0;5382;2;0;0;0;0;0;6;0;3556;2;0;0;0;0;0;7;0;2687;0;0;0;0;8;0;2828;0;0;0;0;9;0;1434;0;0;0;0
03.12.18;18:55:00;1;389;9966;0;2;0;2437;0;0;0;0;3;0;1471;0;0;0;0;4;0;2058;0;0;0;0;5;0;5382;2;0;0;0;0;0;6;0;3556;2;0;0;0;0;0;7;0;2687;0;0;0;0;8;0;2828;0;0;0;0;9;0;1434;0;0;0;0
03.12.18;18:50:00;1;397;9933;0;2;0;2437;0;0;0;0;3;0;1471;0;0;0;0;4;0;2058;0;0;0;0;5;0;5382;2;0;0;0;0;0;6;0;3556;2;0;0;0;0;0;7;0;2687;0;0;0;0;8;0;2828;0;0;0;0;9;0;1434;0;0;0;0
03.12.18;18:45:00;1;412;9900;0;2;0;2437;0;0;0;0;3;0;1471;0;0;0;0;4;0;2058;0;0;0;0;5;0;5382;2;0;0;0;0;0;6;0;3556;2;0;0;0;0;0;7;0;2687;0;0;0;0;8;0;2828;0;0;0;0;9;0;1434;0;0;0;0
03.12.18;18:40:00;1;453;9865;0;2;0;2437;0;0;0;0;3;0;1471;0;0;0;0;4;0;2058;0;0;0;0;5;0;5382;2;0;0;0;0;0;6;0;3556;2;0;0;0;0;0;7;0;2687;0;0;0;0;8;0;2828;0;0;0;0;9;0;1434;0;0;0;0
03.12.18;18:35:00;1;512;9827;0;2;0;2437;0;0;0;0;3;0;1471;0;0;0;0;4;0;2058;0;0;0;0;5;0;5382;2;0;0;0;0;0;6;0;3556;2;0;0;0;0;0;7;0;2687;0;0;0;0;8;0;2828;0;0;0;0;9;0;1434;0;0;0;0
03.12.18;18:30:00;1;562;9782;0;2;0;2437;0;0;0;0;3;0;1471;0;0;0;0;4;0;2058;0;0;0;0;5;0;5382;2;0;0;0;0;0;6;0;3556;2;0;0;0;0;0;7;0;2687;0;0;0;0;8;0;2828;0;0;0;0;9;0;1434;0;0;0;0
03.12.18;18:25:00;1;624;9730;0;2;0;2437;0;0;0;0;3;0;1471;0;0;0;0;4;0;2058;0;0;0;0;5;0;5382;2;0;0;0;0;0;6;0;3556;2;0;0;0;0;0;7;0;2687;0;0;0;0;8;0;2828;0;0;0;0;9;0;1434;0;0;0;0
03.12.18;18:20:00;1;621;9677;0;2;0;2437;0;0;0;0;3;0;1471;0;0;0;0;4;0;2058;0;0;0;0;5;0;5382;2;0;0;0;0;0;6;0;3556;2;0;0;0;0;0;7;0;2687;0;0;0;0;8;0;2828;0;0;0;0;9;0;1434;0;0;0;0
03.12.18;18:15:00;1;621;9625;0;2;0;2437;0;0;0;0;3;0;1471;0;0;0;0;4;0;2058;0;0;0;0;5;0;5382;2;0;0;0;0;0;6;0;3556;2;0;0;0;0;0;7;0;2687;0;0;0;0;8;0;2828;0;0;0;0;9;0;1434;0;0;0;0
03.12.18;18:10:00;1;577;9573;0;2;0;2437;0;0;0;0;3;0;1471;0;0;0;0;4;0;2058;0;0;0;0;5;0;5382;2;0;0;0;0;0;6;0;3556;2;0;0;0;0;0;7;0;2687;0;0;0;0;8;0;2828;0;0;0;0;9;0;1434;0;0;0;0
03.12.18;18:05:00;1;560;9527;0;2;0;2437;0;0;0;0;3;0;1471;0;0;0;0;4;0;2058;0;0;0;0;5;0;5382;2;0;0;0;0;0;6;0;3556;2;0;0;0;0;0;7;0;2687;0;0;0;0;8;0;2828;0;0;0;0;9;0;1434;0;0;0;0
03.12.18;18:00:00;1;584;9479;0;2;0;2437;0;0;0;0;3;0;1471;0;0;0;0;4;0;2058;0;0;0;0;5;0;5382;2;0;0;0;0;0;6;0;3556;2;0;0;0;0;0;7;0;2687;0;0;0;0;8;0;2828;0;0;0;0;9;0;1434;0;0;0;0
03.12.18;17:55:00;1;585;9431;0;2;0;2437;0;0;0;0;3;0;1471;0;0;0;0;4;0;2058;0;0;0;0;5;0;5382;2;0;0;0;0;0;6;0;3556;2;0;0;0;0;0;7;0;2687;0;0;0;0;8;0;2828;0;0;0;0;9;0;1434;0;0;0;0
03.12.18;17:50:00;1;579;9382;0;2;0;2437;0;0;0;0;3;0;1471;0;0;0;0;4;0;2058;0;0;0;0;5;0;5382;2;0;0;0;0;0;6;0;3556;2;0;0;0;0;0;7;0;2687;0;0;0;0;8;0;2828;0;0;0;0;9;0;1434;0;0;0;0
03.12.18;17:45:00;1;554;9332;0;2;0;2437;0;0;0;0;3;0;1471;0;0;0;0;4;0;2058;0;0;0;0;5;0;5382;2;0;0;0;0;0;6;0;3556;2;0;0;0;0;0;7;0;2687;0;0;0;0;8;0;2828;0;0;0;0;9;0;1434;0;0;0;0
03.12.18;17:40:00;1;678;9284;0;2;0;2437;0;0;0;0;3;0;1471;0;0;0;0;4;0;2058;0;0;0;0;5;0;5382;2;0;0;0;0;0;6;0;3556;2;0;0;0;0;0;7;0;2687;0;0;0;0;8;0;2828;0;0;0;0;9;0;1434;0;0;0;0
03.12.18;17:35:00;1;2895;9222;0;2;0;2437;0;0;0;0;3;0;1471;0;0;0;0;4;0;2058;0;0;0;0;5;0;5382;2;0;0;0;0;0;6;0;3556;2;0;0;0;0;0;7;0;2687;0;0;0;0;8;0;2828;0;0;0;0;9;0;1434;0;0;0;0
03.12.18;17:30:00;1;3074;8978;0;2;0;2437;0;0;0;0;3;0;1471;0;0;0;0;4;0;2058;0;0;0;0;5;0;5382;2;0;0;0;0;0;6;0;3556;2;0;0;0;0;0;7;0;2687;0;0;0;0;8;0;2828;0;0;0;0;9;0;1434;0;0;0;0
03.12.18;17:25:00;1;3326;8718;0;2;0;2437;0;0;0;0;3;0;1471;0;0;0;0;4;0;2058;0;0;0;0;5;0;5382;2;0;0;0;0;0;6;0;3556;2;0;0;0;0;0;7;0;2687;0;0;0;0;8;0;2828;0;0;0;0;9;0;1434;0;0;0;0
03.12.18;17:20:00;1;963;8470;0;2;0;2437;0;0;0;0;3;0;1471;0;0;0;0;4;0;2058;0;0;0;0;5;0;5382;2;0;0;0;0;0;6;0;3556;2;0;0;0;0;0;7;0;2687;0;0;0;0;8;0;2828;0;0;0;0;9;0;1434;0;0;0;0
03.12.18;17:15:00;1;1552;8392;0;2;0;2437;0;0;0;0;3;0;1471;0;0;0;0;4;0;2058;0;0;0;0;5;0;5382;2;0;0;0;0;0;6;0;3556;2;0;0;0;0;0;7;0;2687;0;0;0;0;8;0;2828;0;0;0;0;9;0;1434;0;0;0;0
03.12.18;17:10:00;1;4013;8222;0;2;0;2437;0;0;0;0;3;0;1471;0;0;0;0;4;0;2058;0;0;0;0;5;0;5382;2;0;0;0;0;0;6;0;3556;2;0;0;0;0;0;7;0;2687;0;0;0;0;8;0;2828;0;0;0;0;9;0;1434;0;0;0;0
03.12.18;17:05:00;1;4919;7880;0;2;0;2437;0;0;0;0;3;0;1471;0;0;0;0;4;0;2058;0;0;0;0;5;0;5382;2;0;0;0;0;0;6;0;3556;2;0;0;0;0;0;7;0;2687;0;0;0;0;8;0;2828;0;0;0;0;9;0;1434;0;0;0;0
03.12.18;17:00:00;1;4944;7454;0;2;0;2437;0;0;0;0;3;0;1471;0;0;0;0;4;0;2058;0;0;0;0;5;0;5382;2;0;0;0;0;0;6;0;3556;2;0;0;0;0;0;7;0;2687;0;0;0;0;8;0;2828;0;0;0;0;9;0;1434;0;0;0;0
03.12.18;16:55:00;1;3413;7002;0;2;0;2437;0;0;0;0;3;0;1471;0;0;0;0;4;0;2058;0;0;0;0;5;0;5382;2;0;0;0;0;0;6;0;3556;2;0;0;0;0;0;7;0;2687;0;0;0;0;8;0;2828;0;0;0;0;9;0;1434;0;0;0;0
03.12.18;16:50:00;1;1209;6732;0;2;0;2437;0;0;0;0;3;0;1471;0;0;0;0;4;0;2058;0;0;0;0;5;0;5382;2;0;0;0;0;0;6;0;3556;2;0;0;0;0;0;7;0;2687;0;0;0;0;8;0;2828;0;0;0;0;9;0;1434;0;0;0;0
03.12.18;16:45:00;1;1075;6636;0;2;0;2437;0;0;0;0;3;0;1471;0;0;0;0;4;0;2058;0;0;0;0;5;0;5382;2;0;0;0;0;0;6;0;3556;2;0;0;0;0;0;7;0;2687;0;0;0;0;8;0;2828;0;0;0;0;9;0;1434;0;0;0;0
03.12.18;16:40:00;1;886;6550;0;2;0;2437;0;0;0;0;3;0;1471;0;0;0;0;4;0;2058;0;0;0;0;5;0;5382;2;0;0;0;0;0;6;0;3556;2;0;0;0;0;0;7;0;2687;0;0;0;0;8;0;2828;0;0;0;0;9;0;1434;0;0;0;0
03.12.18;16:35:00;1;741;6478;0;2;0;2437;0;0;0;0;3;0;1471;0;0;127;6;4;0;2058;0;0;0;0;5;0;5382;2;0;0;0;0;0;6;0;3556;2;0;0;0;0;0;7;0;2687;0;0;0;0;8;0;2828;0;0;0;0;9;0;1434;0;0;0;0
03.12.18;16:30:00;1;673;6416;0;2;0;2437;0;0;182;6;3;0;1471;6;0;289;13;4;0;2058;0;0;0;0;5;0;5382;2;0;0;0;0;0;6;0;3556;2;0;0;0;0;0;7;0;2687;0;0;0;0;8;0;2828;0;0;0;0;9;0;1434;0;0;0;0
03.12.18;16:25:00;1;648;6342;0;2;0;2437;6;0;260;9;3;0;1471;6;0;296;13;4;0;2058;0;0;12;2;5;0;5382;2;0;0;0;0;0;6;0;3556;0;0;0;0;0;0;7;0;2687;0;0;0;0;8;0;2828;0;0;0;0;9;0;1434;0;0;0;0
03.12.18;16:20:00;1;650;6287;0;2;0;2437;6;0;285;10;3;0;1471;6;0;322;13;4;0;2058;2;0;84;14;5;0;5382;2;0;0;0;0;0;6;0;3556;2;0;0;0;0;0;7;0;2687;0;0;0;0;8;0;2828;0;0;0;0;9;0;1434;0;0;0;0
03.12.18;16:15:00;1;714;6232;0;2;0;2437;6;0;325;10;3;0;1471;6;0;399;13;4;0;2058;1;0;129;15;5;0;5382;26;0;0;283;281;24;6;0;3556;2;4;3;144;339;18;7;0;2687;0;0;103;6;8;0;2828;0;0;215;12;9;0;1434;0;0;171;6
03.12.18;16:10:00;1;675;6172;0;2;0;2437;6;0;340;10;3;0;1471;6;1;411;13;4;0;2058;1;0;149;15;5;0;5382;23;0;0;359;375;25;6;0;3556;23;9;8;181;469;23;7;0;2687;0;0;143;8;8;0;2828;0;0;243;12;9;0;1434;0;0;0;0
03.12.18;16:05:00;1;642;6117;0;2;0;2437;6;0;345;10;3;0;1471;6;2;419;13;4;0;2058;1;0;155;15;5;0;5382;23;0;0;376;434;25;6;0;3556;23;5;3;180;488;23;7;0;2687;6;0;177;9;8;0;2828;6;0;247;12;9;0;1434;6;0;259;9
03.12.18;16:00:00;1;665;6062;0;2;0;2437;6;0;382;10;3;0;1471;6;0;485;14;4;0;2058;1;0;213;16;5;10;5382;26;1;2;401;627;25;6;0;3556;23;4;6;262;557;24;7;0;2687;0;0;0;0;8;0;2828;6;0;407;15;9;0;1434;6;0;360;9
03.12.18;15:55:00;1;641;6008;0;2;0;2437;6;0;391;10;3;1;1471;4;3;473;14;4;0;2058;3;0;207;16;5;12;5381;26;1;5;409;651;25;6;0;3556;23;2;7;423;566;24;7;0;2687;0;0;177;6;8;0;2828;6;2;248;9;9;0;1434;3;0;169;4
03.12.18;15:50:00;1;526;5950;0;2;0;2437;6;0;403;11;3;0;1470;6;5;483;14;4;0;2058;3;0;210;16;5;85;5379;4;18;20;367;583;26;6;27;3555;4;6;13;496;470;25;7;0;2687;4;5;423;16;8;1;2828;4;2;166;6;9;2;1434;0;3;384;9
03.12.18;15:45:00;1;567;5906;0;2;0;2437;6;0;398;11;3;2;1470;6;5;482;14;4;1;2058;3;1;219;16;5;74;5372;4;12;19;367;583;26;6;0;3553;8;2;7;480;573;25;7;0;2687;3;4;344;13;8;3;2827;3;6;418;16;9;0;1434;0;0;0;0
03.12.18;15:40:00;1;411;5860;0;2;0;2437;6;0;403;11;3;0;1470;6;5;492;14;4;0;2058;3;0;224;16;5;86;5366;4;19;26;367;583;26;6;35;3553;1;20;32;483;459;25;7;1;2687;6;4;369;14;8;0;2827;6;0;77;2;9;2;1434;0;2;312;8
03.12.18;15:35:00;1;358;5825;0;2;0;2437;6;0;406;11;3;0;1470;6;6;490;14;4;1;2058;3;1;199;17;5;96;5359;4;27;26;367;583;26;6;10;3549;23;8;14;570;508;25;7;0;2687;6;0;188;6;8;1;2827;6;5;452;16;9;0;1434;6;0;417;9
03.12.18;15:30:00;1;355;5795;0;2;7;2437;6;11;405;12;3;1;1470;6;5;507;14;4;0;2058;3;0;199;17;5;132;5351;4;45;46;367;583;26;6;62;3548;4;27;16;434;216;26;7;1;2687;0;6;306;11;8;0;2827;0;0;162;5;9;0;1434;0;3;155;4
03.12.18;15:25:00;1;397;5766;0;2;55;2436;4;83;358;12;3;4;1470;4;9;515;14;4;6;2058;3;6;198;17;5;178;5339;4;75;64;367;583;26;6;87;3543;4;61;37;434;216;26;7;20;2687;6;29;239;10;8;23;2827;6;42;323;13;9;0;1434;0;0;111;2
03.12.18;15:20:00;1;529;5728;0;2;65;2432;4;93;355;12;3;11;1470;3;25;488;14;4;25;2057;3;26;198;17;5;195;5324;4;89;73;367;583;26;6;95;3535;4;70;41;434;216;26;7;19;2683;0;30;140;6;8;19;2822;0;34;163;6;9;0;1434;6;0;335;7
03.12.18;15:15:00;1;544;5685;0;2;75;2426;4;104;361;12;3;8;1469;6;14;523;15;4;30;2055;3;31;198;17;5;217;5308;4;98;84;367;583;26;6;107;3527;4;76;45;432;216;26;7;55;2681;4;90;388;17;8;58;2821;4;93;404;17;9;8;1434;6;11;533;13
03.12.18;15:10:00;1;544;5639;0;2;96;2420;4;123;355;12;3;27;1468;6;44;493;15;4;59;2053;3;61;198;17;5;253;5290;4;113;101;367;583;26;6;121;3518;4;77;43;435;216;26;7;84;2676;4;109;425;17;8;82;2816;4;108;385;17;9;13;1433;6;19;516;13
03.12.18;15:05:00;1;545;5587;0;2;117;2412;4;146;360;12;3;63;1466;4;102;463;15;4;74;2048;3;77;198;17;5;298;5268;4;135;123;367;583;26;6;148;3508;4;101;54;435;216;26;7;102;2669;4;141;448;17;8;103;2809;4;139;431;17;9;42;1432;6;59;414;13
03.12.18;15:00:00;1;1306;5537;0;2;116;2402;4;146;359;13;3;64;1461;4;99;457;15;4;73;2042;3;76;200;17;5;308;5243;4;146;125;367;583;26;6;177;3495;4;96;87;434;327;26;7;108;2661;4;143;426;17;8;109;2801;4;140;439;17;9;21;1429;3;29;533;13
03.12.18;14:55:00;1;675;5469;0;2;203;2393;4;233;373;13;3;119;1456;4;154;479;15;4;156;2035;5;163;224;17;5;488;5217;4;238;206;394;603;26;6;359;3480;4;161;184;541;525;26;7;210;2652;4;244;433;17;8;209;2792;4;243;445;17;9;109;1427;4;135;497;14
03.12.18;14:50:00;1;528;5413;0;2;234;2376;4;267;374;13;3;140;1446;4;179;497;15;4;189;2023;5;197;226;17;5;537;5176;4;275;228;392;597;26;6;405;3449;4;189;208;550;544;26;7;271;2635;4;296;455;17;8;261;2775;4;293;461;17;9;141;1418;4;167;502;14
03.12.18;14:45:00;1;446;5370;0;2;256;2357;4;289;371;13;3;153;1434;4;191;482;15;4;208;2007;5;216;224;17;5;576;5131;4;287;246;400;611;26;6;431;3415;4;200;215;565;538;26;7;254;2612;4;285;450;17;8;253;2753;4;290;439;17;9;104;1406;4;125;405;11
03.12.18;14:40:00;1;453;5333;0;2;306;2335;4;344;388;13;3;186;1421;4;226;473;16;4;259;1990;5;270;227;17;5;678;5082;4;335;290;402;631;26;6;504;3379;4;257;274;554;550;25;7;0;2567;0;0;0;0;8;318;2732;4;355;442;17;9;142;1394;0;165;413;11
03.12.18;14:35:00;1;407;5295;0;2;316;2310;4;353;387;13;3;194;1406;4;234;472;16;4;267;1968;5;278;225;17;5;713;5025;4;358;307;398;626;26;6;537;3336;4;291;316;550;549;25;7;346;2567;4;386;462;17;8;350;2706;4;393;457;17;9;149;1382;4;172;397;11
03.12.18;14:30:00;1;416;5261;0;2;369;2284;4;407;385;14;3;227;1390;4;267;485;16;4;314;1946;5;327;227;18;5;836;4966;4;422;359;402;630;25;6;624;3292;4;328;343;570;546;25;7;384;2539;4;425;468;17;8;72;2658;0;78;74;2;9;102;1366;4;118;251;7
03.12.18;14:25:00;1;345;5227;0;2;559;2253;4;605;393;14;3;348;1371;4;396;503;16;4;485;1920;5;505;235;18;5;1180;4894;4;607;509;416;647;25;6;894;3239;4;458;476;579;558;25;7;375;2507;4;402;284;10;8;481;2646;4;519;371;13;9;212;1342;0;234;308;8
03.12.18;14:20:00;1;517;5198;0;2;600;2206;4;647;393;14;3;374;1342;4;421;490;16;4;520;1880;5;542;234;18;5;1248;4795;4;639;537;405;657;25;6;952;3164;4;506;511;579;555;25;7;690;2459;4;727;471;17;8;111;2597;4;118;76;2;9;184;1324;4;202;255;7
03.12.18;14:15:00;1;446;5154;0;2;929;2156;4;984;395;14;3;572;1311;4;633;517;16;4;774;1837;5;806;240;17;5;1767;4690;4;930;776;419;686;25;6;1324;3084;4;681;685;592;570;25;7;406;2401;4;434;194;6;8;324;2540;4;348;187;6;9;432;1285;0;471;416;11
03.12.18;14:10:00;1;349;5118;0;2;882;2078;4;935;398;13;3;563;1262;4;617;514;16;4;741;1772;5;772;241;17;5;1766;4525;4;927;781;414;684;25;6;1368;2960;4;720;712;595;566;25;7;747;2326;4;782;321;11;8;1109;2471;4;1165;470;16;9;609;1252;4;659;522;14
03.12.18;14:05:00;1;304;5089;0;2;659;2001;4;702;392;13;3;414;1214;4;465;503;15;4;575;1708;5;599;236;17;5;1336;4384;4;687;582;420;679;25;6;1029;2850;4;489;497;583;561;24;7;829;2227;4;868;469;17;8;814;2377;4;871;469;16;9;438;1199;4;483;523;14
03.12.18;14:00:00;1;298;5064;0;2;555;1947;4;596;394;13;3;343;1180;4;391;500;15;4;472;1661;5;492;235;17;5;1113;4276;4;573;485;410;652;24;6;851;2767;4;427;438;577;561;24;7;93;2158;4;99;75;2;8;319;2310;4;337;236;8;9;265;1163;4;297;436;11
03.12.18;13:55:00;1;345;5037;0;2;553;1901;4;597;398;13;3;343;1151;4;390;498;15;4;472;1622;5;491;232;17;5;1119;4183;4;581;482;410;647;24;6;858;2696;4;419;441;585;559;24;7;474;2101;0;499;372;13;8;466;2261;4;505;373;12;9;311;1138;4;345;508;14
03.12.18;13:50:00;1;340;5009;0;2;575;1854;4;617;388;13;3;358;1122;4;406;497;15;4;501;1582;5;522;235;16;5;1169;4086;4;603;504;414;684;24;6;901;2623;4;497;500;582;564;24;7;676;2062;4;724;460;17;8;222;2212;4;235;151;5;9;169;1110;4;188;258;6
03.12.18;13:45:00;1;342;4981;0;2;598;1807;4;642;395;13;3;373;1093;4;418;500;15;4;520;1540;5;541;236;16;5;1188;3991;4;614;517;418;673;24;6;916;2550;4;475;485;587;560;24;7;726;2006;4;768;469;17;8;718;2154;4;766;464;16;9;317;1072;0;349;416;10
03.12.18;13:40:00;1;343;4952;0;2;391;1758;4;426;395;12;3;241;1062;4;284;495;15;4;326;1498;5;339;232;16;5;787;3894;4;396;337;406;623;24;6;601;2476;4;300;315;571;552;24;7;448;1947;4;481;464;16;8;446;2096;4;480;471;16;9;236;1049;4;266;511;13